Weather History for Pian Rosa, Italy

Change the Weather History Date:

Tuesday, October 8, 2013

  Actual Average Record
Temperature  
Mean Temperature 28 °F -  
Max Temperature 31 °F 27 °F 39 °F (2006)
Min Temperature 25 °F 20 °F 10 °F (2011)
Degree Days  
Heating Degree Days 37    
Moisture  
Dew Point 22 °F    
Average Humidity 77    
Maximum Humidity 94    
Minimum Humidity 49    
Precipitation  
Precipitation 0.02 in - - ()
Sea Level Pressure  
Sea Level Pressure 30.39 in    
Wind  
Wind Speed 3 mph ()    
Max Wind Speed 8 mph    
Max Gust Speed -    
Visibility 0.2 miles    
Events Fog , Snow    
Averages and records for this station are not official NWS values.
T = Trace of Precipitation, MM = Missing Value Source: Averaged Metar Reports

Daily Weather History Graph

Daily Weather History Graph

Search for Another Location

Airport:

Trip Planner

Search our weather history database for the weather conditions in past years. The results will help you decide how hot, cold, wet, or windy it might be!

Date:

Astronomy

Oct. 08, 2013 Rise Set
Actual Time 7:36 AM CEST 6:55 PM CEST
Civil Twilight 7:06 AM CEST 7:25 PM CEST
Nautical Twilight 6:32 AM CEST 8:00 PM CEST
Astronomical Twilight 5:57 AM CEST 8:34 PM CEST
Moon 11:25 AM CEST (10/8) 9:05 PM CEST (10/8)
Length of Visible Light 12h 19m
Length of Day
11h 19m
Waxing Crescent, 14% of the Moon is Illuminated
Oct 8
Waxing Crescent
Oct 12
First Quarter
Oct 19
Full
Oct 27
Last Quarter
Nov 3
New

Hourly Weather History & Observations

Time (CEST) Temp. Windchill Dew Point Humidity Pressure Visibility Wind Dir Wind Speed Gust Speed Precip Events Conditions
12:55 AM 28.4 °F 24.6 °F 23.0 °F 80% 30.42 in 0.5 mi Variable 3.5 mph - N/A Fog Light Freezing Fog
1:55 AM 28.4 °F - 23.0 °F 80% 30.39 in 0.2 mi Calm Calm - N/A Fog Light Freezing Fog
2:00 AM 28 °F - 24 °F 77%  in 0 mi Calm Calm - - Fog Heavy Fog
2:55 AM 28.4 °F - 23.0 °F 80% 30.39 in 0.2 mi Variable 2.3 mph - N/A Fog Light Freezing Fog
3:55 AM 26.6 °F - 23.0 °F 86% 30.39 in 0.1 mi Variable 2.3 mph - N/A Fog Light Freezing Fog
4:55 AM 26.6 °F - 23.0 °F 86% 30.39 in 0.1 mi Variable 1.2 mph - N/A Fog Light Freezing Fog
5:00 AM 27 °F - 22 °F 75%  in 0 mi 1.2 mph - - Fog Heavy Fog
5:55 AM 26.6 °F - 21.2 °F 80% 30.39 in - Variable 2.3 mph - N/A   Clear
6:55 AM 26.6 °F 21.2 °F 19.4 °F 74% 30.36 in - NE 4.6 mph - N/A   Clear
7:55 AM 26.6 °F 21.2 °F 17.6 °F 69% 30.36 in - ESE 4.6 mph - N/A   Clear
8:00 AM 26 °F - 18 °F 62%  in 31 mi ESE 4.6 mph - -   Partly Cloudy
8:55 AM 26.6 °F 22.6 °F 15.8 °F 64% 30.39 in - East 3.5 mph - N/A   Clear
9:55 AM 28.4 °F - 19.4 °F 69% 30.39 in - South 2.3 mph - N/A   Clear
10:55 AM 28.4 °F - 17.6 °F 64% 30.39 in - Variable 2.3 mph - N/A   Clear
11:00 AM 29 °F - 17 °F 49%  in 31 mi 2.3 mph - -  
11:55 AM 28.4 °F 23.3 °F 17.6 °F 64% 30.39 in - ENE 4.6 mph - N/A   Clear
1:55 PM 32.0 °F - 24.8 °F 75% 30.39 in 0.3 mi Variable 2.3 mph - N/A Fog , Snow Light Snow
2:00 PM 31 °F - 25 °F 69%  in 0 mi 2.3 mph - - Snow Light Snow
2:55 PM 32.0 °F 27.5 °F 23.0 °F 69% 30.39 in 1.2 mi NE 4.6 mph - N/A   Mist
3:55 PM 32.0 °F - 24.8 °F 75% 30.39 in 0.2 mi Variable 2.3 mph - N/A Fog Light Freezing Fog
4:55 PM 30.2 °F - 28.4 °F 93% 30.39 in 0.1 mi Variable 2.3 mph - N/A Fog Light Freezing Fog
5:00 PM 30 °F - 29 °F 94%  in 0 mi 2.3 mph - - Fog Heavy Fog
5:55 PM 30.2 °F 26.7 °F 24.8 °F 80% 30.39 in 0.1 mi Variable 3.5 mph - N/A Fog Light Freezing Fog
6:55 PM 28.4 °F 24.6 °F 24.8 °F 86% 30.39 in 0.1 mi Variable 3.5 mph - N/A Fog Light Freezing Fog
7:55 PM 28.4 °F 21.2 °F 24.8 °F 86% 30.39 in 0.1 mi NE 6.9 mph - N/A Fog Light Freezing Fog
8:00 PM 28 °F - 24 °F 80%  in 0 mi NE 6.9 mph - - Fog Heavy Fog
8:55 PM 26.6 °F 18.2 °F 24.8 °F 93% 30.39 in 0.1 mi NE 8.1 mph - N/A Fog , Snow Light Snow
9:55 PM 26.6 °F 20.0 °F 23.0 °F 86% 30.39 in 0.1 mi ENE 5.8 mph - N/A Fog , Snow Light Snow
10:55 PM 26.6 °F 19.1 °F 23.0 °F 86% 30.39 in 0.1 mi NE 6.9 mph - N/A Fog Light Freezing Fog
11:00 PM 27 °F - 23 °F 79%  in 0 mi NE 6.9 mph - - Fog Heavy Fog
11:55 PM 26.6 °F 19.1 °F 23.0 °F 86% 30.39 in 0.1 mi NE 6.9 mph - N/A Fog Light Freezing Fog